2021 JT
ephemeris date magn radius delta ra dec elong phase
Today20 Oct 202530.31.287 AU2.233 AU12h48m-04°08'13.8°10.6°
2021 JT - 2025-10-20
astro.vanbuitenen.nl


 
-1 year
-1 month
-1 day
Now
+1 day
+1 month
+1 year

The interactive orbit chart above shows the body's path through the solar system and its position at the given date. Green and blue lines are shown perpendicular to the ecliptic plane: Green if the path is above the ecliptic plane, blue if it is below. (Left-click and drag to rotate the view; Right-click and drag to move the view; Use scroll wheel to zoom in our out.)

The orbital elements of 2021 JT are:

            e (Eccentricity)                : 0.3120578
            a (Semimajor axis)              : 1.3313875
            i (Inclination)                 : 2.25835
            Ω (Longitude of ascending node) : 50.86873
            ω (Argument of perihelion)      : 233.59561
            M (Mean anomaly)                : 186.10744
            Epoch                           : 2025 May 05

            L (Longitude of perihelion)     : 104.44307
            B (Latitude of perihelion)      : -1.81746
            P (Orbital period in years)     : 1.54            
        

The light curve chart below shows the estimated development of the minor planet's magnitude.


The all-sky chart below shows the path of the minor planet over the same period as the light curve. The current position is marked yellow.





The following chart shows the path of the minor planet in the next few days. The field of view is optimized for (~10x50) binoculars and finderscopes.




Ephemerides:
Date       Time       RA (2000)    DEC (2000)    delta   radius  elong  phase   PA    magn
2025-10-20 00:00 UT   12 48 33.2   -04 08 48     2.233    1.287   13.8   10.6   297   30.3 
2025-10-20 16:31 UT   12 50 38.0   -04 22 24     2.228    1.284   13.9   10.7   297   30.3 
2025-10-21 00:00 UT   12 51 34.7   -04 28 34     2.226    1.282   13.9   10.8   297   30.3 
2025-10-22 00:00 UT   12 54 37.2   -04 48 23     2.220    1.278   14.1   10.9   297   30.3 
2025-10-23 00:00 UT   12 57 40.7   -05 08 13     2.213    1.273   14.3   11.1   296   30.3 
2025-10-24 00:00 UT   13 00 45.3   -05 28 06     2.207    1.268   14.4   11.3   296   30.3 
2025-10-25 00:00 UT   13 03 50.9   -05 48 00     2.201    1.263   14.6   11.4   296   30.3 
2025-10-26 00:00 UT   13 06 57.6   -06 07 56     2.194    1.258   14.7   11.6   296   30.3 
2025-10-27 00:00 UT   13 10 05.3   -06 27 53     2.188    1.253   14.9   11.7   296   30.2 
2025-10-28 00:00 UT   13 13 14.2   -06 47 51     2.181    1.249   15.0   11.9   295   30.2 
2025-10-29 00:00 UT   13 16 24.3   -07 07 50     2.175    1.244   15.2   12.1   295   30.2 
2025-10-30 00:00 UT   13 19 35.5   -07 27 50     2.169    1.239   15.3   12.2   295   30.2 


    Terminology:
            
    delta:  distance between minor planet and earth in AU
    radius: distance between minor planet and sun in AU
    magn:   magnitude (brightness) estimate    
    ra:     right ascension in hours (24h = 360deg)
    dec:    declination in degrees
    elong:  elongation in degrees (angle sun-earth-minor planet)    
    phase:  phase angle in degrees (angle sun-minor planet-earth)        
    AU:     Astronomical Unit (mean distance between earth and sun: 149597870.7 km
    

Orbital elements provided by the MPC (Minor Planet Center).
Calculations by a modified version of AAPlus, a C# implementation of the AA+ project by PJ Naughter from the algorithms presented in the book "Astronomical Algorithms" by Jean Meeus.
NGC2000 dso catalog and star labels from VizieR as provided by the Strasbourg astronomical Data Center.
Tycho2 catalog from the ESO archive.